Location: Amsterdam
(30.7274°N, 84.4357°W)
Time: 01:46:53
(UTC+00:00)

Transit 4A - Visible Passes

Search period start: 07 February 2026 00:00
Search period end: 17 February 2026 00:00
Orbit: 866 x 976 km, 66.8° (Epoch: 6 February)

Date Brightness Start Highest point End Pass type
(mag) Time Alt. Az. Time Alt. Az. Time Alt. Az.
7 Feb 8.1 10:58:33 10° SSW 11:04:16 67° ESE 11:10:07 10° NNE visible
8 Feb 10.8 09:26:43 10° ESE 09:27:31 10° ESE 09:28:20 10° E visible
8 Feb 7.7 11:07:12 10° SSW 11:12:59 78° WNW 11:18:54 10° NNE visible
9 Feb 10.2 09:32:12 10° SE 09:35:59 18° ESE 09:39:48 10° ENE visible
9 Feb 7.9 11:16:10 10° SW 11:21:46 50° WNW 11:27:30 10° NNE visible
10 Feb 9.5 09:41:07 17° SSE 09:44:31 29° ESE 09:49:30 10° NE visible
10 Feb 8.5 11:25:29 10° WSW 11:30:38 32° WNW 11:35:54 10° N visible
11 Feb 8.6 09:51:54 41° SE 09:53:06 47° ESE 09:58:42 10° NE visible
11 Feb 9.0 11:35:30 11° WSW 11:39:35 21° NW 11:44:03 10° N visible
12 Feb 7.8 10:01:59 74° E 10:01:59 74° E 10:07:39 10° NNE visible
12 Feb 9.4 11:45:38 10° W 11:48:40 14° NW 11:51:43 10° NNW visible
13 Feb 8.0 10:11:39 55° N 10:11:39 55° N 10:16:24 10° NNE visible
14 Feb 10.7 08:37:32 10° ENE 08:37:32 10° ENE 08:37:37 10° ENE visible
14 Feb 8.6 10:21:03 35° NNW 10:21:03 35° NNW 10:24:57 10° NNE visible
15 Feb 10.5 08:46:45 12° NE 08:46:45 12° NE 08:47:09 10° NE visible
15 Feb 9.1 10:30:15 24° NNW 10:30:15 24° NNW 10:33:17 10° N visible
16 Feb 10.4 08:55:49 12° NE 08:55:49 12° NE 08:56:17 10° NE visible
16 Feb 9.5 10:39:19 16° NNW 10:39:19 16° NNW 10:41:21 10° N visible
